Starlink 5421

operational
NORAD ID: 54799 Int'l Des: 2022-175 Owner: SPXS Country: US Constellation: starlink
LEOCIRCULAR

Über Starlink 5421

Beschreibung wird geladen...

Live-Position

3D-Globus wird geladen...

Nächste Überflüge

Höhenverlauf

Altitude vs Time

uPlot chart will show altitude changes over time

Zweizeiliger Elementsatz

1 54799U 22175AT 25260.69009553 .00000507 00000-0 49932-4 0 9996
2 54799 53.2171 75.7103 0001366 88.6118 271.5031 15.08839992154155
Epoch: 17. Sept. 2025 • Age: 14 hours

Aktueller Status

Höhe 545.7 km
Geschwindigkeit 7.59 km/s
Subsatellitenpunkt -19.89°S, 41.39°W
Startdatum 17. Dez. 2022
Alter 2.7 years
Typ internet

Technische Details

Klassifizierung Payload
Masse 305.00 kg
Trockenmasse 290.00 kg
Gesamtmasse 305.00 kg
Länge 0.20 m
Durchmesser 2.80 m
Spannweite 9.00 m
Form Box + pan
Hersteller SPXS
Bus-Typ Starlink
Phasenstatus In Orbit
Besitzer/Staat SPXS/US

Große Konstellationen

Loading constellations...